TimeEDT,TemperatureF,Dew PointF,Humidity,Sea Level PressureIn,VisibilityMPH,Wind Direction,Wind SpeedMPH,Gust SpeedMPH,PrecipitationIn,Events,Conditions,WindDirDegrees,DateUTC
12:15 AM,82.4,73.4,74,29.94,10.0,SW,6.9,-,N/A,,Clear,220,2013-07-21 04:15:00
12:35 AM,82.4,73.4,74,29.94,10.0,SW,9.2,-,N/A,,Clear,220,2013-07-21 04:35:00
12:55 AM,82.4,73.4,74,29.94,10.0,SW,3.5,-,N/A,,Clear,230,2013-07-21 04:55:00
1:15 AM,80.6,73.4,79,29.95,10.0,SW,6.9,-,N/A,,Clear,230,2013-07-21 05:15:00
1:35 AM,80.6,73.4,79,29.95,10.0,SW,6.9,-,N/A,,Clear,230,2013-07-21 05:35:00
1:55 AM,80.6,73.4,79,29.95,10.0,WSW,8.1,-,N/A,,Clear,240,2013-07-21 05:55:00
2:15 AM,80.6,73.4,79,29.95,10.0,SW,6.9,-,N/A,,Clear,230,2013-07-21 06:15:00
2:35 AM,80.6,73.4,79,29.95,10.0,WSW,5.8,-,N/A,,Clear,250,2013-07-21 06:35:00
2:55 AM,80.6,73.4,79,29.94,10.0,WSW,5.8,-,N/A,,Clear,250,2013-07-21 06:55:00
3:15 AM,78.8,73.4,83,29.94,10.0,WSW,5.8,-,N/A,,Clear,240,2013-07-21 07:15:00
3:35 AM,78.8,73.4,83,29.94,10.0,SW,5.8,-,N/A,,Clear,220,2013-07-21 07:35:00
3:55 AM,78.8,73.4,83,29.94,10.0,SW,5.8,-,N/A,,Clear,220,2013-07-21 07:55:00
4:15 AM,78.8,73.4,83,29.94,10.0,SW,3.5,-,N/A,,Clear,230,2013-07-21 08:15:00
4:35 AM,78.8,73.4,83,29.94,10.0,SW,3.5,-,N/A,,Clear,220,2013-07-21 08:35:00
4:55 AM,78.8,73.4,83,29.94,10.0,SSW,3.5,-,N/A,,Clear,210,2013-07-21 08:55:00
5:15 AM,78.8,73.4,83,29.94,10.0,SSW,4.6,-,N/A,,Clear,210,2013-07-21 09:15:00
5:35 AM,78.8,71.6,78,29.95,10.0,SW,8.1,-,N/A,,Clear,220,2013-07-21 09:35:00
5:55 AM,77.0,71.6,83,29.95,10.0,SW,5.8,-,N/A,,Scattered Clouds,220,2013-07-21 09:55:00
6:15 AM,77.0,71.6,83,29.95,10.0,SW,5.8,-,N/A,,Scattered Clouds,220,2013-07-21 10:15:00
6:35 AM,77.0,71.6,83,29.95,10.0,SW,6.9,-,N/A,,Scattered Clouds,230,2013-07-21 10:35:00
6:55 AM,77.0,71.6,83,29.96,10.0,SSW,6.9,-,N/A,,Clear,210,2013-07-21 10:55:00
7:15 AM,77.0,71.6,83,29.96,10.0,SW,4.6,-,N/A,,Scattered Clouds,220,2013-07-21 11:15:00
7:35 AM,77.0,71.6,83,29.96,10.0,SW,5.8,-,N/A,,Mostly Cloudy,230,2013-07-21 11:35:00
7:55 AM,78.8,73.4,83,29.97,10.0,WSW,10.4,-,N/A,,Mostly Cloudy,240,2013-07-21 11:55:00
8:15 AM,78.8,71.6,78,29.97,10.0,SW,10.4,-,N/A,,Mostly Cloudy,230,2013-07-21 12:15:00
8:35 AM,78.8,73.4,83,29.96,10.0,SW,4.6,-,N/A,,Scattered Clouds,220,2013-07-21 12:35:00
8:55 AM,80.6,73.4,79,29.96,10.0,WSW,5.8,-,N/A,,Mostly Cloudy,240,2013-07-21 12:55:00
9:15 AM,80.6,73.4,79,29.96,10.0,West,6.9,-,N/A,,Overcast,280,2013-07-21 13:15:00
9:35 AM,80.6,73.4,79,29.96,10.0,West,6.9,-,N/A,,Overcast,270,2013-07-21 13:35:00
9:55 AM,82.4,73.4,74,29.96,10.0,West,8.1,-,N/A,,Overcast,260,2013-07-21 13:55:00
10:15 AM,82.4,73.4,74,29.96,10.0,West,4.6,-,N/A,,Overcast,260,2013-07-21 14:15:00
10:35 AM,82.4,73.4,74,29.96,10.0,SSW,6.9,-,N/A,,Mostly Cloudy,200,2013-07-21 14:35:00
10:55 AM,86.0,73.4,66,29.97,10.0,West,8.1,-,N/A,,Mostly Cloudy,280,2013-07-21 14:55:00
11:15 AM,86.0,73.4,66,29.97,10.0,West,5.8,-,N/A,,Mostly Cloudy,260,2013-07-21 15:15:00
11:35 AM,86.0,73.4,66,29.97,10.0,Calm,Calm,-,N/A,,Mostly Cloudy,0,2013-07-21 15:35:00
11:55 AM,87.8,73.4,62,29.97,10.0,WSW,3.5,-,N/A,,Mostly Cloudy,240,2013-07-21 15:55:00
12:15 PM,87.8,75.2,66,29.97,10.0,West,6.9,-,N/A,,Scattered Clouds,280,2013-07-21 16:15:00
12:35 PM,89.6,75.2,62,29.96,10.0,West,5.8,-,N/A,,Scattered Clouds,270,2013-07-21 16:35:00
12:55 PM,89.6,75.2,62,29.96,10.0,SSW,6.9,-,N/A,,Scattered Clouds,210,2013-07-21 16:55:00
1:15 PM,91.4,75.2,59,29.96,10.0,WSW,5.8,-,N/A,,Scattered Clouds,240,2013-07-21 17:15:00
2:05 PM,91.4,73.4,55,29.95,10.0,WSW,6.9,-,N/A,,Scattered Clouds,240,2013-07-21 18:05:00
2:15 PM,91.4,75.2,59,29.95,10.0,WSW,6.9,-,N/A,,Scattered Clouds,250,2013-07-21 18:15:00
2:16 PM,89.6,75.2,62,29.95,10.0,WSW,8.1,-,N/A,,Scattered Clouds,240,2013-07-21 18:16:00
2:35 PM,91.4,75.2,59,29.95,10.0,SW,5.8,-,N/A,,Scattered Clouds,220,2013-07-21 18:35:00
2:55 PM,89.6,75.2,62,29.93,10.0,WSW,3.5,-,N/A,,Scattered Clouds,240,2013-07-21 18:55:00
3:15 PM,91.4,75.2,59,29.92,10.0,West,8.1,-,N/A,,Scattered Clouds,270,2013-07-21 19:15:00
3:35 PM,91.4,75.2,59,29.92,10.0,WSW,8.1,-,N/A,,Scattered Clouds,250,2013-07-21 19:35:00
3:55 PM,91.4,75.2,59,29.92,10.0,WSW,4.6,-,N/A,,Scattered Clouds,250,2013-07-21 19:55:00
4:15 PM,91.4,75.2,59,29.91,10.0,WSW,6.9,-,N/A,,Scattered Clouds,240,2013-07-21 20:15:00
4:35 PM,91.4,75.2,59,29.90,10.0,WSW,4.6,-,N/A,,Scattered Clouds,240,2013-07-21 20:35:00
4:55 PM,93.2,75.2,56,29.90,10.0,SW,3.5,-,N/A,,Scattered Clouds,230,2013-07-21 20:55:00
5:15 PM,91.4,75.2,59,29.88,10.0,SSW,5.8,-,N/A,,Clear,200,2013-07-21 21:15:00
5:35 PM,89.6,75.2,62,29.90,10.0,Calm,Calm,-,N/A,,Scattered Clouds,0,2013-07-21 21:35:00
5:55 PM,89.6,75.2,62,29.88,10.0,South,5.8,-,N/A,,Mostly Cloudy,190,2013-07-21 21:55:00
6:15 PM,82.4,75.2,79,29.90,10.0,Calm,Calm,-,N/A,,Overcast,0,2013-07-21 22:15:00
6:35 PM,80.6,73.4,79,29.93,10.0,Calm,Calm,-,N/A,,Overcast,0,2013-07-21 22:35:00
6:55 PM,80.6,71.6,74,29.94,10.0,Calm,Calm,-,N/A,,Overcast,0,2013-07-21 22:55:00
7:15 PM,78.8,71.6,78,29.95,10.0,Calm,Calm,-,N/A,,Overcast,0,2013-07-21 23:15:00
7:35 PM,78.8,71.6,78,29.98,7.0,East,10.4,-,N/A,,Overcast,100,2013-07-21 23:35:00
7:55 PM,75.2,71.6,89,29.96,10.0,East,15.0,19.6,0.02,,Overcast,100,2013-07-21 23:55:00
8:15 PM,73.4,71.6,94,29.99,0.5,Calm,Calm,-,0.29,,Overcast,0,2013-07-22 00:15:00
8:35 PM,73.4,69.8,88,29.97,2.0,Calm,Calm,-,0.61,,Overcast,0,2013-07-22 00:35:00
8:55 PM,73.4,71.6,94,29.95,7.0,Calm,Calm,-,0.65,,Overcast,0,2013-07-22 00:55:00
9:15 PM,73.4,71.6,94,29.93,5.0,Calm,Calm,-,0.03,,Mostly Cloudy,0,2013-07-22 01:15:00
9:35 PM,73.4,71.6,94,29.94,7.0,Calm,Calm,-,0.04,,Scattered Clouds,0,2013-07-22 01:35:00
9:55 PM,73.4,71.6,94,29.94,7.0,Calm,Calm,-,0.04,,Clear,0,2013-07-22 01:55:00
10:15 PM,73.4,71.6,94,29.94,5.0,Calm,Calm,-,0.01,,Clear,0,2013-07-22 02:15:00
10:35 PM,73.4,71.6,94,29.95,5.0,Calm,Calm,-,0.01,,Clear,0,2013-07-22 02:35:00
10:55 PM,73.4,71.6,94,29.95,7.0,Calm,Calm,-,0.01,,Clear,0,2013-07-22 02:55:00
11:15 PM,73.4,71.6,94,29.95,10.0,West,4.6,-,N/A,,Clear,280,2013-07-22 03:15:00
11:35 PM,73.4,71.6,94,29.95,7.0,Calm,Calm,-,N/A,,Clear,0,2013-07-22 03:35:00
11:55 PM,73.4,71.6,94,29.95,7.0,South,3.5,-,N/A,,Clear,170,2013-07-22 03:55:00